Theta_e
318 318 319 319 320 320 321 321 321 321 321 321 320 320 319 319 317 303 294 299 308 319 316 303 299 298 300 301 303 301 292 288 291 291 293 296 295 298 297 299 300 304 306 310 310
319 319 319 320 320 320 321 321 321 321 321 321 320 319 319 318 308 300 307 314 316 317 301 298 296 297 295 298 298 297 290 290 294 293 293 295 294 295 295 295 296 298 300 306 306
319 320 321 321 320 321 321 321 321 321 320 320 319 317 318 315 299 296 311 313 315 311 302 300 299 296 294 296 296 295 291 292 293 294 294 294 293 294 293 293 296 296 298 303 304
320 320 320 319 320 320 320 321 320 320 320 320 317 317 317 305 289 297 313 312 314 306 300 297 296 292 291 291 295 290 294 294 296 295 294 293 293 292 293 296 296 296 297 300 302
318 317 317 318 318 319 320 320 320 320 321 320 317 317 304 294 294 298 310 306 301 299 297 296 293 292 289 290 291 291 291 292 293 292 292 292 291 292 291 294 295 294 295 295 300
317 315 315 317 319 319 319 319 319 321 321 319 315 315 299 289 297 297 298 299 299 298 296 297 294 294 291 291 290 291 291 290 290 290 290 290 289 289 291 292 292 292 293 293 294
314 314 314 315 317 318 319 319 319 320 319 318 313 306 296 293 296 296 298 297 298 298 295 297 297 294 292 289 292 290 287 287 287 288 287 287 287 286 290 291 290 290 290 291 292
312 312 312 313 314 315 317 318 319 318 316 313 311 298 290 297 296 296 296 296 298 298 298 298 297 294 291 291 288 286 285 283 286 287 287 287 286 289 288 289 289 290 290 290 291
310 310 310 311 313 314 316 318 317 314 311 311 297 293 290 301 293 295 294 294 296 296 296 298 294 289 288 284 283 283 281 281 284 286 285 285 285 288 288 288 289 289 289 289 290
309 309 309 310 311 313 316 314 312 305 303 301 296 291 292 289 293 294 294 295 293 293 293 291 287 284 283 283 280 282 281 281 282 284 284 283 284 288 288 288 288 288 288 287 288
307 307 308 309 310 312 306 298 296 295 294 293 291 291 290 293 295 292 293 293 291 289 285 287 283 282 284 283 284 284 282 282 283 284 283 282 283 286 287 287 287 286 285 286 288
306 306 306 307 308 312 298 292 290 291 288 295 294 293 293 293 289 291 293 289 287 285 285 283 282 286 285 284 283 282 281 280 282 284 283 281 282 286 286 286 285 285 285 285 287
306 305 306 307 307 307 296 293 297 292 286 292 292 290 290 292 290 290 291 288 285 282 283 282 284 285 285 282 281 280 280 281 282 282 282 280 281 284 286 286 285 285 286 286 285
306 306 306 306 304 303 298 301 297 297 281 287 287 288 290 290 287 290 290 287 284 283 282 281 283 283 282 281 282 280 282 282 281 279 275 280 276 282 284 284 284 284 284 285 286
305 306 306 304 296 300 299 300 297 296 276 286 285 291 288 287 286 286 289 287 282 281 282 282 280 280 280 281 283 281 282 281 281 275 272 275 274 280 282 282 283 283 284 285 286
304 305 306 297 296 302 301 299 298 285 277 283 283 282 282 283 284 285 285 287 285 282 281 280 282 281 281 282 282 283 282 281 279 275 269 273 276 279 279 282 283 284 284 285 286
303 304 301 299 291 303 301 297 282 279 284 280 281 281 281 281 281 282 281 279 278 275 276 280 280 281 282 280 282 281 279 269 269 267 272 275 272 279 283 282 283 283 284 285 286
303 302 296 296 299 303 299 289 275 276 277 284 283 282 280 281 280 280 279 277 279 278 276 276 274 280 282 281 279 279 279 274 268 270 272 274 272 280 282 282 283 284 284 285 285
301 291 290 297 305 300 293 281 274 278 284 282 283 281 281 282 282 280 278 277 281 281 278 275 276 280 282 282 283 279 276 281 272 262 269 274 277 282 282 281 282 283 284 284 285
290 286 287 298 302 295 285 278 277 283 286 284 282 284 278 279 280 280 281 282 283 284 287 284 280 281 282 284 284 280 282 277 276 268 266 271 272 279 279 280 282 283 285 285 285
286 281 288 295 300 290 275 273 281 286 287 285 280 281 283 281 280 277 278 282 283 282 285 283 285 279 284 280 279 279 278 279 281 280 273 270 276 281 280 281 282 284 286 286 286
285 274 287 293 282 284 277 282 286 284 287 286 284 284 283 284 280 278 277 281 284 282 280 283 282 273 276 279 281 281 281 283 279 278 276 276 276 283 282 282 284 285 286 287 287
278 279 287 292 265 269 276 282 285 283 284 284 283 284 283 282 276 279 277 284 284 282 280 282 277 268 272 276 278 277 279 281 281 281 276 276 277 282 282 283 286 286 286 286 285
284 275 274 285 284 280 278 275 277 284 284 285 283 284 283 282 284 276 278 283 284 282 288 285 278 273 272 274 277 275 277 280 280 273 275 278 277 279 281 283 285 285 286 284 283
284 278 278 267 270 279 280 279 276 276 283 283 280 281 280 273 278 278 278 282 284 285 284 281 271 271 271 274 275 276 277 277 277 278 274 278 279 281 283 284 285 286 284 283 282
280 280 282 278 277 276 276 275 276 277 278 277 278 280 280 271 278 278 281 281 281 281 281 280 269 269 267 269 274 276 279 277 277 277 276 276 277 283 285 284 283 284 283 282 283
283 287 282 279 278 273 272 277 278 279 280 281 279 279 277 279 281 282 283 285 285 282 278 279 274 270 273 267 267 270 276 277 277 276 278 275 281 282 282 283 284 283 283 283 283
Wind_Speed
13 14 14 15 14 15 15 15 16 17 16 17 16 14 14 14 14 1 1 2 4 7 4 2 2 2 2 3 3 3 4 2 4 6 2 2 0 0 3 2 1 3 2 0 3
12 12 14 15 15 15 15 15 15 16 16 18 16 13 12 13 2 1 0 5 6 5 3 3 3 1 3 2 2 4 3 7 2 4 1 2 1 2 1 2 3 2 3 1 4
10 12 14 15 16 16 16 15 15 15 15 16 15 13 10 6 3 1 4 5 4 2 2 1 2 1 2 2 2 3 5 3 1 2 2 1 2 2 1 4 7 5 2 2 4
11 13 15 17 16 16 16 16 16 16 17 16 13 9 9 1 3 2 6 5 2 4 1 2 2 3 3 4 3 2 4 3 2 1 0 2 2 4 7 8 4 4 2 2 6
14 15 16 16 17 16 17 18 17 18 16 15 12 9 3 1 5 0 4 5 2 2 2 2 3 4 3 3 3 3 2 2 2 4 4 2 6 6 8 11 7 6 5 6 6
15 19 20 18 16 16 16 17 19 17 16 14 8 6 1 3 4 2 3 2 3 2 1 2 4 3 3 2 4 1 3 5 4 1 3 3 3 1 3 3 3 2 5 6 6
19 20 21 20 22 21 18 17 16 15 16 9 3 2 2 8 1 2 4 2 1 2 3 1 2 3 4 2 1 1 4 5 1 1 3 1 6 10 2 2 4 5 5 4 5
19 20 20 20 22 23 24 23 20 15 6 3 1 2 6 0 1 2 1 2 2 3 4 3 2 4 2 2 5 2 4 3 1 1 0 2 9 1 4 4 4 6 6 5 5
21 21 23 22 22 22 24 22 17 5 1 3 2 2 6 2 2 1 1 3 2 2 3 3 4 3 3 5 4 5 4 5 5 2 1 3 8 3 1 7 9 7 6 6 7
23 24 24 25 24 25 23 18 5 3 3 1 1 3 1 2 2 3 0 3 3 3 3 4 5 4 3 4 6 6 5 4 5 1 1 3 15 13 6 7 8 8 6 6 6
24 25 26 26 25 27 11 5 7 4 4 6 2 3 1 1 0 1 1 4 3 3 4 2 3 8 13 7 3 5 3 4 2 2 1 6 9 19 7 6 6 5 5 6 4
24 25 26 28 29 20 3 5 2 3 9 7 7 5 3 2 1 4 2 5 4 6 5 3 8 7 6 5 4 3 3 6 3 1 2 3 13 18 5 2 2 5 5 4 2
23 24 26 27 28 4 3 2 2 3 3 8 4 3 3 6 5 5 8 3 4 6 8 8 2 4 5 4 6 4 6 5 5 1 2 5 8 4 1 1 3 4 3 2 4
25 23 25 30 4 5 2 3 2 2 4 8 2 2 2 2 3 1 3 3 2 8 7 7 3 6 5 5 7 4 6 5 5 4 5 2 7 5 3 1 2 3 4 4 6
24 26 23 18 5 4 5 5 2 1 5 1 1 2 1 2 3 1 1 3 5 6 6 5 6 5 4 5 7 3 4 5 3 4 4 4 3 8 1 3 3 3 4 5 5
24 25 25 5 4 4 6 5 1 1 10 1 1 1 2 1 1 1 1 3 1 4 2 4 1 3 3 3 1 9 6 6 4 3 2 5 6 6 6 6 4 3 4 5 6
26 24 15 2 4 6 5 1 2 6 4 5 2 1 2 3 2 4 4 4 6 5 5 2 4 3 4 6 4 2 6 2 4 3 8 1 2 9 4 5 6 9 7 6 6
27 24 6 3 4 6 3 1 6 4 6 1 2 2 3 4 2 3 3 3 6 2 3 6 5 8 5 5 8 6 6 7 9 5 4 4 8 7 4 2 5 6 7 6 6
23 4 4 3 3 0 2 7 10 7 3 0 1 3 3 2 2 2 5 6 8 13 9 5 3 1 0 2 3 6 6 3 8 1 3 4 7 7 4 3 4 7 6 7 7
6 4 4 7 5 1 2 10 5 3 2 1 2 5 4 3 4 3 6 2 5 8 4 4 2 1 1 1 2 3 4 3 2 2 4 4 6 6 6 8 6 8 8 7 7
4 5 4 9 2 1 4 7 5 4 3 4 3 3 4 3 5 6 5 4 2 2 3 4 6 2 3 7 9 3 2 2 1 3 5 1 7 5 10 10 11 9 9 9 8
3 4 3 4 3 2 5 3 4 5 2 6 3 6 4 2 4 4 7 5 4 3 6 4 2 5 9 1 2 1 7 6 3 5 1 1 8 1 7 10 9 8 8 7 6
2 4 4 2 2 4 6 4 3 5 6 6 4 2 1 5 3 6 3 2 2 2 5 4 3 1 7 5 4 5 6 4 2 2 7 6 7 3 6 11 7 9 7 6 5
3 5 5 1 3 7 7 7 8 5 6 5 4 3 2 4 4 4 2 2 1 2 1 3 2 7 9 6 4 5 6 11 10 5 6 12 3 1 6 15 9 7 7 7 7
2 3 3 4 5 5 6 6 7 6 4 6 5 7 8 4 5 10 3 5 4 5 3 5 6 3 3 2 1 3 4 9 15 13 9 7 11 8 14 15 19 12 7 7 8
4 4 2 5 3 6 6 10 14 10 6 7 10 11 7 4 6 10 7 5 4 3 3 1 5 3 4 3 3 4 8 9 11 4 8 4 11 5 5 4 5 10 9 9 9
3 3 6 12 11 5 5 8 7 3 6 7 8 10 10 12 7 8 6 8 10 8 3 2 4 3 10 1 3 5 16 10 7 7 9 12 9 6 6 9 13 11 10 10 11
Wind_Direction
358 355 353 351 352 350 348 347 346 346 344 342 337 330 329 331 324 219 341 312 323 327 335 284 82 61 72 85 72 137 71 213 236 168 242 2 74 319 314 313 296 206 210 231 114
352 353 351 347 346 344 343 344 344 342 341 340 334 324 323 332 301 286 110 336 328 345 46 62 99 120 58 72 30 92 127 220 216 201 233 318 21 305 91 358 261 260 265 61 139
348 349 345 342 339 335 337 337 338 338 339 337 331 324 319 334 316 163 328 338 333 55 71 85 86 96 108 102 174 159 204 199 239 233 176 259 279 295 183 242 231 196 215 186 183
346 357 349 342 335 331 331 331 332 334 335 335 331 328 318 290 284 206 330 332 357 125 104 99 93 104 134 184 164 195 236 209 264 53 318 236 294 272 199 226 153 157 257 257 209
15 4 352 346 342 334 329 328 326 328 327 331 331 335 328 24 245 320 346 357 73 124 76 127 131 130 196 184 142 182 272 245 276 288 255 310 245 248 250 247 282 284 261 263 239
10 1 353 347 339 335 329 325 322 322 321 321 322 336 329 269 135 1 340 95 52 81 74 57 153 157 124 179 180 142 280 273 290 294 286 258 274 114 258 125 122 314 271 246 239
12 6 355 347 343 337 330 321 311 312 314 308 319 49 23 247 62 8 30 95 24 120 121 105 138 132 139 149 327 69 328 322 202 198 237 202 276 231 249 271 297 327 283 296 242
12 3 355 348 342 335 326 318 314 312 292 223 106 68 246 127 184 46 23 70 43 60 101 142 127 103 75 138 25 53 54 352 349 73 333 129 271 351 44 75 341 312 296 291 273
8 3 354 347 340 333 326 314 311 326 124 139 156 179 264 132 148 143 39 149 80 57 57 94 69 95 51 100 11 5 220 206 304 65 305 158 273 293 160 343 307 301 291 280 279
5 358 353 344 340 334 325 315 295 35 15 47 50 11 166 203 147 139 58 110 122 111 61 50 56 88 49 121 213 198 213 237 241 347 130 229 266 264 273 307 291 302 305 298 273
1 358 348 343 337 335 339 358 10 346 17 215 225 260 198 122 159 85 174 112 110 77 177 2 124 203 208 191 136 130 182 224 230 107 300 239 270 279 281 283 298 316 329 326 299
1 358 349 340 333 331 25 67 108 209 304 259 236 265 230 182 241 215 168 155 151 181 125 40 230 224 108 154 159 156 160 250 287 129 193 322 275 277 267 245 331 315 334 339 77
354 352 348 342 325 25 27 50 341 158 265 289 212 193 200 152 222 233 152 140 158 156 191 175 198 114 146 149 157 206 186 199 206 170 63 331 284 289 196 110 18 13 341 21 130
353 344 345 342 21 340 344 346 359 277 14 272 236 300 66 162 244 86 189 134 173 206 163 234 251 165 174 192 148 224 196 158 148 107 230 13 278 281 183 98 31 19 33 81 119
349 347 341 348 293 305 324 341 339 282 285 276 193 305 50 181 132 1 321 73 181 179 136 237 160 171 174 204 173 216 102 112 87 96 54 313 58 264 124 208 188 141 125 111 129
344 340 338 352 320 296 332 325 266 218 237 340 79 137 128 222 120 110 108 54 121 141 221 247 251 191 184 73 66 153 78 55 62 94 333 224 155 256 190 190 166 162 158 150 142
341 331 331 278 261 338 323 20 24 237 338 294 314 136 260 214 212 178 165 180 168 118 213 200 205 165 136 88 42 82 108 354 355 6 227 44 59 252 219 208 187 173 173 174 159
339 326 308 235 279 314 325 72 216 245 226 286 200 143 233 153 254 186 153 238 231 150 132 176 288 169 181 188 177 190 168 165 198 195 232 2 228 251 202 212 200 172 164 165 158
341 316 318 287 337 12 199 230 209 208 295 192 233 178 230 211 204 207 221 214 207 181 186 157 264 61 88 160 148 180 206 156 108 93 42 211 275 288 170 120 134 153 155 176 165
334 344 294 318 333 350 215 237 249 269 311 56 200 200 224 214 167 183 197 220 248 194 152 231 340 42 141 154 36 171 163 123 5 170 246 277 279 236 184 182 166 162 169 170 169
13 357 270 331 293 250 210 227 282 298 298 244 232 265 260 244 199 185 245 286 298 148 193 170 168 100 35 211 178 154 196 227 220 174 179 239 256 223 186 173 169 174 174 171 171
337 334 291 12 333 210 245 218 295 292 323 275 247 212 195 233 262 254 219 235 353 168 179 203 184 172 201 318 334 276 190 139 163 203 218 137 272 80 191 170 168 176 174 164 162
294 265 321 39 188 264 305 241 264 275 248 286 300 232 287 219 243 216 239 297 359 216 189 193 219 61 338 356 346 217 200 154 134 76 190 172 255 13 154 165 193 171 180 180 187
297 297 313 228 229 284 292 280 265 253 273 262 283 301 241 288 228 268 282 302 320 218 32 158 217 182 208 195 134 194 195 190 181 176 175 223 229 238 174 180 192 195 189 199 207
250 257 208 283 296 216 261 296 315 322 301 345 316 240 246 260 246 252 262 290 232 229 183 169 223 160 260 276 222 222 196 190 207 219 189 220 211 214 195 193 203 190 189 190 215
289 303 319 284 277 247 246 260 265 260 228 256 262 286 306 208 266 300 333 319 284 18 206 341 248 120 295 339 260 255 247 206 225 255 261 279 259 255 228 172 165 201 199 206 220
228 266 282 292 276 259 227 244 242 337 268 263 277 284 280 283 266 273 263 258 249 283 222 227 157 136 251 112 84 299 229 198 191 198 190 222 241 176 204 198 213 216 203 208 212